[[{"header":{"parameterUnit":"m.s-1","parameterCategory":1,"la1":30.2991,"la2":30.254,"lo1":-89.0895,"lo2":-89.0444,"dy":0.0017,"dx":0.0017,"nx":28,"ny":28,"refTime":"2025-06-18T03:00:00:Z","depth":0,"parameterNumber":2,"parameterNumberName":"U-component_of_WINDS"},"data":[0,0,0,0,0,0,0,0,0,0,0,0,0,0,0,0,0,0,0,0,0,0,0,0,0,0,0,0,0,0,0,0,0,0,0,0,0,0,0,0,0,0,0,0,0,0,0,0,0,0,0,0,0,0,0,0,0,0,3.7562,3.7564,0,3.778,3.7783,3.7785,3.777,3.7767,3.7764,3.7761,3.7984,3.7993,3.8001,0,0,0,0,0,0,0,0,0,0,0,0,0,3.7131,3.7139,3.7562,3.7564,3.7567,3.778,3.7783,3.7786,3.7771,3.7767,3.7763,3.7759,3.7981,3.7992,3.8002,0,0,0,0,0,0,0,0,0,0,0,0,0,3.7331,3.7142,3.7561,3.7585,3.759,3.7779,3.7783,3.7787,3.7772,3.7767,3.7762,3.7758,3.7977,3.799,3.8004,3.8183,0,0,3.8045,3.805,0,0,0,0,0,0,0,0,3.7319,3.7346,3.7579,3.7584,3.7589,3.7743,3.7713,3.7919,3.7773,3.7703,3.7761,3.7755,3.7908,3.7926,3.7978,3.8194,3.8203,3.8046,3.8054,3.806,3.8064,0,0,0,0,0,0,0,3.7305,3.7337,3.7648,3.7582,3.7589,3.7585,3.7608,3.7752,3.783,3.7708,3.7708,3.7734,3.7909,3.7965,3.7983,3.8206,3.8045,3.8057,3.8066,3.8071,3.8579,3.8584,0,0,0,0,0,0,3.7286,3.7325,3.7641,3.7655,3.744,3.7597,3.7622,3.7699,3.7828,3.7843,3.7738,3.7732,3.7945,3.7968,3.7991,3.8208,3.806,3.8072,3.808,3.8573,3.858,3.8586,0,0,0,0,0,0,3.7277,3.7315,3.7632,3.749,3.753,3.7609,3.7695,3.7705,3.7761,3.785,3.7864,3.778,3.7942,3.7972,3.8135,3.8216,3.8078,3.809,3.8567,3.8576,3.8583,3.8645,0,0,0,0,0,0,3.7265,3.7311,3.738,3.7492,3.7538,3.7773,3.77,3.7713,3.7784,3.7779,3.7894,3.7908,3.794,3.8115,3.8149,3.8232,3.8101,3.856,3.8571,3.858,3.8636,3.8654,3.8669,0,0,0,0,0,3.725,3.7389,3.7384,3.7422,3.7626,3.7778,3.7804,3.7839,3.7791,3.7861,3.7918,3.7904,3.8202,3.8132,3.8169,3.8258,3.8555,3.8568,3.858,3.8628,3.865,3.8669,0,0,0,0,0,0,3.7285,3.7404,3.74,3.758,3.7669,3.7775,3.7864,3.7861,3.7965,3.7956,3.7994,3.802,3.8184,3.8238,3.8158,3.8438,3.8372,3.8393,3.8396,3.8418,3.8435,3.8417,3.8112,0,0,0,0,0,3.7314,3.7427,3.7526,3.7675,3.772,3.7785,3.7852,3.7871,3.7965,3.8002,3.8071,3.8162,3.8276,3.8351,3.8461,3.8644,3.8668,3.8723,3.874,3.8753,3.877,3.887,3.8895,3.8626,3.8626,3.8626,0,0,3.7374,3.7453,3.7523,3.7684,3.7755,3.7871,3.7816,3.7942,3.8028,3.8021,3.8179,3.8233,3.8337,3.8511,3.8591,3.8561,3.885,3.8769,3.8779,3.8788,3.8885,3.891,3.8933,3.8635,3.8633,3.8632,0,0,3.7543,3.7615,3.7747,3.782,3.7928,3.7971,3.8002,3.811,3.8145,3.8305,3.8301,3.8405,3.8601,3.8675,3.8738,3.8936,3.8927,3.8971,3.9058,3.9155,3.9176,3.9195,3.9264,3.9288,3.8988,3.8988,3.8988,0,3.7604,3.7779,3.7815,3.7941,3.8012,3.8012,3.8145,3.8213,3.8353,3.8401,3.8365,3.8611,3.8681,3.8871,3.892,3.8972,3.9008,3.8957,3.917,3.919,3.9208,3.9274,3.93,3.8992,3.8992,3.8991,3.8991,0,3.7848,3.797,3.8063,3.8198,3.8279,3.8408,3.8463,3.8541,3.8553,3.8599,3.8761,3.8846,3.8972,3.9019,3.9032,3.9212,3.9189,3.9162,3.9096,3.9237,3.9299,3.9325,3.8999,3.8997,3.8996,3.8995,0,0,3.8043,3.8196,3.823,3.829,3.8411,3.8505,3.8635,3.8759,3.8824,3.8921,3.9029,3.9195,3.9171,3.9243,3.9264,3.935,3.9499,3.9312,3.9315,3.9342,3.97,3.9718,3.9746,3.9495,3.95,3.9504,3.969,0,3.8222,3.8452,3.8488,3.8689,3.8801,3.8803,3.8916,3.9001,3.9048,3.915,3.9202,3.9318,3.9278,3.9321,3.9406,3.9463,3.9571,3.945,3.9594,3.9599,3.9566,3.9779,3.9799,3.9971,3.9715,3.9719,3.9722,0,3.8462,3.8565,3.8777,3.8882,3.8931,3.9031,3.9147,3.9245,3.9343,3.9371,3.9451,3.9463,3.9597,3.9527,3.9711,3.9628,3.969,3.9727,3.9734,3.9747,3.9667,3.9796,4.0027,4.0051,3.9762,3.9758,3.9756,0,3.858,3.8772,3.8924,3.8976,3.9103,3.9173,3.9229,3.9322,3.9394,3.9496,3.9543,3.9659,3.9722,3.9812,3.9854,3.98,4.0035,3.9969,4.006,4.0059,4.0108,4.0104,4.0349,4.0151,4.0151,4.0151,4.015,0,3.8775,3.8904,3.8978,3.9071,3.9216,3.9257,3.9399,3.9453,3.9536,3.9639,3.9649,3.9745,3.9796,3.99,3.9935,4.0081,4.011,4.0135,4.0142,4.0133,4.0129,4.0172,4.016,4.0157,4.0156,4.0155,4.0153,0,3.893,3.8985,3.915,3.9258,3.9287,3.9389,3.9481,3.9571,3.9618,3.9748,3.9781,3.9854,3.9977,4.0029,4.018,4.0203,4.037,4.0369,4.0337,4.0338,4.0426,4.0416,4.0705,4.0744,4.0523,4.0525,4.0527,0,3.9049,3.9149,3.9267,3.9337,3.9396,3.9508,3.9582,3.9627,3.9703,3.9822,3.9897,4.002,4.0121,4.0317,4.0383,4.0499,4.05,4.0593,4.0517,4.0504,4.0498,4.0491,4.05,4.0606,4.0608,4.061,4.0612,0,3.9255,3.9278,3.9384,3.95,3.9588,3.9682,3.9773,3.983,3.9888,3.9974,4.01,4.0178,4.0332,4.0454,4.0573,4.0631,4.0631,4.0636,4.0662,4.0653,4.0629,4.0641,4.0372,4.0628,4.0627,4.0625,4.0624,4.0624,3.9394,3.9483,3.958,3.9698,3.9771,3.9857,3.9946,4.0005,4.0111,4.024,4.026,4.0394,4.0489,4.065,4.0712,4.0817,4.0793,4.0833,4.0842,4.0851,4.0855,4.0614,4.0839,4.0839,4.0839,4.0838,4.0838,0,3.9598,3.9661,3.977,3.9897,3.999,3.9984,4.0085,4.0163,4.0281,4.037,4.0469,4.0613,4.0732,4.0808,4.0927,4.0996,4.0999,4.1026,4.102,4.1033,4.0871,4.0834,4.1021,4.1021,4.1021,4.1021,4.1021,4.1021,3.9715,3.9863,3.9898,4.0083,4.0145,4.0277,4.0335,4.0413,4.0484,4.0645,4.0744,4.0793,4.0877,4.1002,4.111,4.113,4.1172,4.12,4.1217,4.1064,4.1044,4.1026,4.0992,4.1209,4.1209,4.137,4.1372,4.1373]},{"header":{"parameterUnit":"m.s-1","parameterCategory":1,"la1":30.2991,"la2":30.254,"lo1":-89.0895,"lo2":-89.0444,"dy":0.0017,"dx":0.0017,"nx":28,"ny":28,"refTime":"2025-06-18T03:00:00:Z","depth":0,"parameterNumber":3,"parameterNumberName":"V-component_of_WINDS"},"data":[0,0,0,0,0,0,0,0,0,0,0,0,0,0,0,0,0,0,0,0,0,0,0,0,0,0,0,0,0,0,0,0,0,0,0,0,0,0,0,0,0,0,0,0,0,0,0,0,0,0,0,0,0,0,0,0,0,0,4.1576,4.1579,0,4.1799,4.1801,4.1804,4.1829,4.1827,4.1824,4.1822,4.2046,4.2054,4.2062,0,0,0,0,0,0,0,0,0,0,0,0,0,4.1169,4.1176,4.1576,4.1579,4.1582,4.1798,4.1801,4.1804,4.1829,4.1826,4.1824,4.1821,4.2043,4.2053,4.2062,0,0,0,0,0,0,0,0,0,0,0,0,0,4.1364,4.1179,4.1576,4.162,4.1627,4.1798,4.1802,4.1805,4.183,4.1826,4.1823,4.182,4.204,4.2052,4.2064,4.2204,0,0,4.21,4.2106,0,0,0,0,0,0,0,0,4.1353,4.1379,4.1611,4.1618,4.1625,4.1783,4.174,4.1939,4.1831,4.1752,4.1822,4.1818,4.1961,4.1979,4.2028,4.2215,4.2224,4.2101,4.2109,4.2114,4.2117,0,0,0,0,0,0,0,4.1339,4.1369,4.1664,4.1614,4.1623,4.1628,4.1652,4.1778,4.1872,4.1759,4.1761,4.1788,4.1964,4.2016,4.2033,4.2228,4.2101,4.2112,4.2119,4.2124,4.2541,4.2544,0,0,0,0,0,0,4.1318,4.1358,4.1657,4.1671,4.1478,4.1638,4.1665,4.1735,4.1871,4.1889,4.179,4.1788,4.1997,4.2019,4.2041,4.2215,4.2114,4.2125,4.2132,4.2537,4.2542,4.2546,0,0,0,0,0,0,4.1309,4.1345,4.1648,4.1515,4.1554,4.1649,4.1727,4.1741,4.1794,4.1895,4.1911,4.1827,4.1996,4.2024,4.2164,4.2223,4.2131,4.2141,4.2532,4.2538,4.2544,4.2564,0,0,0,0,0,0,4.1297,4.1341,4.1397,4.1516,4.1561,4.1768,4.1731,4.1748,4.1815,4.1814,4.1933,4.195,4.1995,4.2146,4.2176,4.2238,4.2151,4.2527,4.2535,4.2542,4.2558,4.2569,4.2579,0,0,0,0,0,4.1283,4.1393,4.1399,4.1435,4.1633,4.1772,4.1797,4.1849,4.182,4.1876,4.194,4.1946,4.2212,4.216,4.2194,4.2261,4.2524,4.2533,4.2541,4.2553,4.2567,4.2579,0,0,0,0,0,0,4.1276,4.1409,4.1418,4.157,4.166,4.1776,4.1848,4.1861,4.196,4.1955,4.2013,4.2039,4.2176,4.2232,4.2172,4.2404,4.2365,4.2381,4.2362,4.2376,4.2386,4.237,4.2161,0,0,0,0,0,4.1293,4.1396,4.1506,4.1629,4.1674,4.1753,4.1815,4.1847,4.1942,4.1979,4.2054,4.2144,4.2248,4.2315,4.2416,4.2566,4.2592,4.2628,4.2639,4.2647,4.266,4.2743,4.276,4.2574,4.2574,4.2574,0,0,4.1327,4.1413,4.1474,4.163,4.1703,4.1807,4.1785,4.1896,4.1973,4.1996,4.2133,4.219,4.2295,4.244,4.2507,4.2491,4.2717,4.2658,4.2664,4.2673,4.2754,4.2771,4.2787,4.258,4.2579,4.2578,0,0,4.1444,4.1519,4.1631,4.1704,4.1816,4.1868,4.1894,4.2009,4.2048,4.2187,4.2205,4.2297,4.2475,4.2549,4.2609,4.2753,4.2762,4.2784,4.2839,4.2919,4.2934,4.2947,4.2998,4.3016,4.2797,4.2797,4.2797,0,4.1473,4.1632,4.1685,4.1797,4.1864,4.189,4.2003,4.2071,4.2209,4.2255,4.2234,4.2458,4.253,4.2692,4.2727,4.2776,4.2807,4.2771,4.2928,4.2942,4.2955,4.3004,4.3023,4.2799,4.2799,4.2799,4.2798,0,4.1662,4.1772,4.1848,4.1982,4.2058,4.2169,4.2238,4.2308,4.2333,4.2387,4.2527,4.2614,4.2733,4.2774,4.2799,4.294,4.2926,4.2916,4.2878,4.2974,4.3021,4.304,4.2802,4.2801,4.2801,4.28,0,0,4.1781,4.1943,4.197,4.2031,4.2156,4.2241,4.2353,4.2471,4.253,4.2623,4.2718,4.2867,4.2859,4.2928,4.2961,4.3031,4.3139,4.3012,4.3015,4.3033,4.3299,4.3306,4.3327,4.3145,4.3149,4.3152,4.3291,0,4.1912,4.2113,4.2164,4.2335,4.2437,4.2463,4.256,4.2646,4.2699,4.2791,4.2849,4.2954,4.2935,4.2977,4.3047,4.3111,4.3193,4.3101,4.3232,4.3236,4.3206,4.3352,4.336,4.3487,4.3309,4.3313,4.3315,0,4.2092,4.2191,4.2372,4.2484,4.2528,4.2615,4.2726,4.2815,4.2913,4.2946,4.3023,4.3049,4.3165,4.3121,4.328,4.3217,4.3273,4.3312,4.3318,4.3332,4.3282,4.337,4.3529,4.3547,4.3345,4.3342,4.334,0,4.216,4.2339,4.2471,4.2522,4.2655,4.2715,4.2773,4.2868,4.2935,4.3032,4.3076,4.3185,4.3244,4.3327,4.3381,4.3344,4.3536,4.3496,4.3566,4.3565,4.3606,4.3602,4.3775,4.3642,4.3641,4.3641,4.3641,0,4.2301,4.2411,4.2503,4.2584,4.2708,4.2765,4.2885,4.2943,4.3027,4.3119,4.3147,4.3232,4.3298,4.3392,4.3435,4.356,4.3587,4.3616,4.3626,4.3614,4.361,4.3652,4.3644,4.3646,4.3645,4.3644,4.3643,0,4.2399,4.2465,4.261,4.2725,4.2756,4.2842,4.2939,4.3018,4.3071,4.3187,4.3217,4.3301,4.3412,4.3475,4.3615,4.3643,4.3783,4.3789,4.3751,4.3755,4.3821,4.3814,4.4027,4.4057,4.3903,4.3905,4.3906,0,4.2484,4.257,4.2693,4.2758,4.2817,4.292,4.2989,4.3048,4.3118,4.3236,4.33,4.3414,4.3508,4.3685,4.3757,4.3864,4.3873,4.394,4.3889,4.3874,4.3874,4.3868,4.3877,4.3949,4.395,4.3951,4.3952,0,4.2629,4.2658,4.2758,4.2869,4.2951,4.3041,4.313,4.3181,4.3254,4.3332,4.3447,4.352,4.3664,4.3776,4.3889,4.3947,4.3962,4.3968,4.3989,4.3978,4.3952,4.3967,4.3775,4.3962,4.3961,4.3961,4.396,4.396,4.2724,4.2801,4.29,4.301,4.3083,4.3166,4.3246,4.331,4.3407,4.353,4.3558,4.368,4.3774,4.3927,4.3988,4.4083,4.407,4.4102,4.411,4.4117,4.4119,4.3937,4.4103,4.4103,4.4103,4.4103,4.4103,0,4.287,4.2935,4.3036,4.316,4.3246,4.3254,4.3353,4.3424,4.3531,4.3619,4.3711,4.3843,4.3952,4.4033,4.4144,4.4204,4.4214,4.4231,4.4227,4.424,4.4124,4.4094,4.4222,4.4222,4.4222,4.4222,4.4222,4.4221,4.2956,4.3087,4.3127,4.3294,4.3358,4.3479,4.3535,4.3611,4.3681,4.3828,4.3919,4.3971,4.4056,4.4173,4.4273,4.4294,4.4333,4.435,4.4371,4.4261,4.4248,4.4236,4.4209,4.4358,4.4358,4.448,4.4481,4.4482]}]]